Flag for Germany Weather past 2 weeks in Potsdam, Brandenburg, Germany

Now
60 °F

Light rain. Overcast.


Feels Like: 60 °F
Forecast: 59 / 73 °F
Wind: 3 mph from Southeast

Location: Potsdam

Current Time: Sep 19, 2014 at 12:39:01 PM

Latest Report: Sep 19, 2014 at 12:00 PM


Visibility: 6 mi

Pressure: 29.95 "Hg

Humidity: 97%

Dew point: 58 °F

Location of PotsdamLocation

Historic Weather in Potsdam — Graph

°F

Potsdam temperature yesterday

Maximum temperature yesterday: 74 °F (at 4:00 PM)
Minimum temperature yesterday: 54 °F (at 7:00 AM)
Average temperature yesterday: 64 °F

Past Weeks' High & Low Weather Summary

 TemperatureHumidityPressure
High81 °F (Sep 6, 5:00 PM)99% (Sep 11, 1:00 AM)30.22 "Hg (Sep 11, 1:00 AM)
Low52 °F (Sep 9, 4:00 AM)43% (Sep 8, 3:00 PM)29.86 "Hg (Sep 6, 6:00 PM)
Average63 °F82%30.03 "Hg
* Reported Sep 4 11:00 AM — Sep 19 11:00 AM, Potsdam, Weather by CustomWeather, © 2014

Note: Actual official high and low records may vary slightly from our data, if they occured in-between our weather recording intervals... More about our weather records

Advertising

Potsdam weather history for previous 24 hours

 ConditionsComfort  
Time TempWeatherWind HumidityBarometerVisibility
11:00 AM
Sep 19
58 °FLight rain. Overcast.6 mph97%29.95 "Hg6 mi
10:00 AM57 °FLight rain. Overcast.2 mph95%29.96 "Hg7 mi
9:00 AM56 °FOvercast.3 mph91%29.95 "Hg11 mi
8:00 AM55 °FOvercast.3 mph93%29.95 "Hg11 mi
7:00 AM55 °FLight rain. Partly sunny.3 mph92%29.93 "Hg14 mi
6:00 AM54 °FPassing clouds.6 mph92%29.93 "Hg19 mi
5:00 AM55 °FPassing clouds.6 mph91%29.93 "Hg22 mi
4:00 AM55 °FPassing clouds.6 mph90%29.95 "Hg22 mi
3:00 AM56 °FPassing clouds.6 mph88%29.95 "Hg22 mi
2:00 AM57 °FPassing clouds.6 mph87%29.95 "Hg22 mi
1:00 AM58 °FPassing clouds.6 mph85%29.96 "Hg22 mi
12:00 AM59 °FPassing clouds.5 mph83%29.95 "Hg22 mi
11:00 PM
Sep 18
60 °FPassing clouds.5 mph81%29.96 "Hg22 mi
10:00 PM62 °FPassing clouds.5 mph79%29.96 "Hg22 mi
9:00 PM62 °FPassing clouds.5 mph77%29.96 "Hg22 mi
8:00 PM64 °FPassing clouds.3 mph73%29.95 "Hg19 mi
7:00 PM68 °FPassing clouds.3 mph64%29.95 "Hg19 mi
6:00 PM71 °FScattered clouds.3 mph54%29.94 "Hg22 mi
5:00 PM74 °FScattered clouds.3 mph48%29.94 "Hg22 mi
4:00 PM74 °FPassing clouds.6 mph48%29.93 "Hg19 mi
3:00 PM74 °FScattered clouds.6 mph50%29.94 "Hg19 mi
2:00 PM74 °FPassing clouds.5 mph52%29.95 "Hg19 mi
1:00 PM72 °FPassing clouds.5 mph56%29.95 "Hg19 mi
12:00 PM70 °FPassing clouds.6 mph59%29.97 "Hg19 mi
Weather by CustomWeather, © 2014

See weather overviewHow to use our weather pages